Weather History for Monticello, KY

Change the Weather History Date:

Thursday, February 21, 2013

  Actual Average Record
Temperature  
Mean Temperature 33 °F -  
Max Temperature 45 °F 53 °F 74 °F (1986)
Min Temperature 21 °F 30 °F 10 °F (1959)
Degree Days  
Heating Degree Days 32    
Moisture  
Dew Point 25 °F    
Average Humidity 74    
Maximum Humidity 100    
Minimum Humidity 33    
Precipitation  
Precipitation 0.53 in - - ()
Sea Level Pressure  
Sea Level Pressure 30.16 in    
Wind  
Wind Speed 6 mph (WSW)    
Max Wind Speed 15 mph    
Max Gust Speed 18 mph    
Visibility 7 miles    
Events Rain    
Averages and records for this station are not official NWS values.
T = Trace of Precipitation, MM = Missing Value Source: NWS Daily Summary

Daily Weather History Graph

Daily Weather History Graph

Search for Another Location

Airport:

Trip Planner

Search our weather history database for the weather conditions in past years. The results will help you decide how hot, cold, wet, or windy it might be!

Date:

Astronomy

Feb. 21, 2013 Rise Set
Actual Time 6:20 AM CST 5:26 PM CST
Civil Twilight 5:54 AM CST 5:52 PM CST
Nautical Twilight 5:23 AM CST 6:22 PM CST
Astronomical Twilight 4:53 AM CST 6:52 PM CST
Moon 1:44 PM CST (2/21) 3:20 AM CST (2/21)
Length of Visible Light 11h 58m
Length of Day
11h 05m
Waxing Gibbous, 84% of the Moon is Illuminated
Feb 21
Waxing Gibbous
Feb 25
Full
Mar 4
Last Quarter
Mar 11
New
Mar 19
First Quarter

Hourly Weather History & Observations

Time (CST) Temp. Windchill Dew Point Humidity Pressure Visibility Wind Dir Wind Speed Gust Speed Precip Events Conditions
12:56 AM 23.0 °F - 16.2 °F 75% 30.32 in 10.0 mi Calm Calm - N/A   Clear
1:56 AM 22.1 °F 15.9 °F 16.2 °F 78% 30.31 in 10.0 mi WSW 4.6 mph - N/A   Clear
2:56 AM 22.1 °F 14.7 °F 16.2 °F 78% 30.30 in 10.0 mi SSW 5.8 mph - N/A   Clear
3:56 AM 21.0 °F 14.6 °F 15.1 °F 78% 30.31 in 10.0 mi SW 4.6 mph - N/A   Clear
4:56 AM 21.0 °F 13.4 °F 16.2 °F 81% 30.30 in 10.0 mi SW 5.8 mph - N/A   Clear
5:56 AM 21.0 °F - 15.1 °F 78% 30.33 in 10.0 mi Calm Calm - N/A   Clear
6:56 AM 22.1 °F 17.4 °F 16.2 °F 78% 30.34 in 10.0 mi WSW 3.5 mph - N/A   Clear
7:56 AM 25.2 °F 17.3 °F 18.1 °F 75% 30.35 in 10.0 mi SW 6.9 mph - N/A   Clear
8:56 AM 30.0 °F 21.7 °F 19.0 °F 64% 30.30 in 10.0 mi SW 9.2 mph - N/A   Clear
9:56 AM 34.9 °F 30.8 °F 18.1 °F 51% 30.28 in 10.0 mi Variable 4.6 mph - N/A   Clear
10:56 AM 38.8 °F 34.6 °F 18.1 °F 43% 30.27 in 10.0 mi SW 5.8 mph - N/A   Clear
12:56 PM 43.9 °F 38.8 °F 18.1 °F 36% 30.17 in 10.0 mi SW 9.2 mph - N/A   Partly Cloudy
1:56 PM 45.0 °F 39.7 °F 17.1 °F 33% 30.14 in 10.0 mi WSW 10.4 mph - N/A   Clear
2:56 PM 45.0 °F 39.7 °F 18.1 °F 34% 30.11 in 10.0 mi WSW 10.4 mph - N/A   Clear
3:56 PM 43.9 °F 38.3 °F 19.0 °F 37% 30.06 in 10.0 mi WSW 10.4 mph - N/A   Clear
4:56 PM 43.0 °F 38.2 °F 19.0 °F 38% 30.07 in 10.0 mi WSW 8.1 mph - N/A   Clear
5:56 PM 41.9 °F 38.2 °F 26.1 °F 53% 30.13 in 9.0 mi South 5.8 mph - 0.00 in Rain Light Rain
6:34 PM 37.4 °F - 33.8 °F 87% 30.10 in 4.0 mi Calm Calm - 0.02 in Rain Rain
6:56 PM 36.9 °F 30.7 °F 32.0 °F 83% 30.14 in 4.0 mi SW 8.1 mph - 0.04 in Rain Rain
7:56 PM 36.0 °F 28.5 °F 32.0 °F 86% 30.09 in 6.0 mi West 10.4 mph - 0.03 in Rain Light Rain
8:35 PM 35.6 °F 30.7 °F 32.0 °F 87% 30.09 in 2.0 mi SSW 5.8 mph - 0.04 in Rain Heavy Rain
8:45 PM 35.6 °F - 32.0 °F 87% 30.12 in 1.5 mi Calm Calm - 0.08 in Rain Heavy Rain
8:56 PM 34.9 °F 27.1 °F 32.9 °F 92% 30.13 in 1.2 mi WSW 10.4 mph - 0.17 in Rain Heavy Rain
9:03 PM 35.6 °F 29.9 °F 33.8 °F 93% 30.10 in 1.8 mi WNW 6.9 mph - 0.04 in Rain Heavy Rain
9:29 PM 35.6 °F 28.0 °F 33.8 °F 93% 30.04 in 3.0 mi West 10.4 mph - 0.11 in Rain Light Rain
9:48 PM 35.6 °F 26.2 °F 33.8 °F 93% 30.05 in 2.5 mi WNW 15.0 mph 18.4 mph 0.13 in Rain Rain
9:56 PM 34.9 °F 27.1 °F 32.9 °F 92% 30.09 in 1.8 mi West 10.4 mph - 0.17 in Rain Heavy Rain
10:13 PM 35.6 °F 29.2 °F 33.8 °F 93% 30.04 in 1.5 mi West 8.1 mph - 0.09 in Rain Heavy Rain
10:20 PM 35.6 °F 27.5 °F 35.6 °F 100% 30.02 in 1.8 mi West 11.5 mph - 0.10 in Rain Rain
10:26 PM 35.6 °F 29.2 °F 35.6 °F 100% 30.02 in 3.0 mi WSW 8.1 mph - 0.12 in Rain Light Rain
10:56 PM 36.9 °F 29.6 °F 34.9 °F 93% 30.03 in 10.0 mi West 10.4 mph - 0.12 in   Overcast
11:56 PM 38.8 °F 35.4 °F 36.0 °F 89% 30.00 in 10.0 mi Variable 4.6 mph - N/A   Mostly Cloudy